星链-4343 (STARLINK-4343 )

导读 | 星芒AI

STARLINK-4343 是 SpaceX Starlink 项目中的一颗低轨通信卫星,属于第二代 Starlink 卫星星座的一部分。该卫星于 2023 年发射,旨在为全球提供高速、低延迟的互联网服务。它运行在约 550 公里的轨道高度,配备先进相控阵天线和激光通信系统,以提升网络性能和卫星间通信能力。作为 Starlink 计划的重要组成,STARLINK-4343 有助于扩大覆盖范围,特别是在偏远和网络基础设施薄弱的地区。

基本信息
目录编号:
53050
目录名称:
STARLINK-4343
国际标识:
2022-077H
轨道中心:
EARTH
卫星名称:
星链-4343
卫星全名:
星链-4343 (STARLINK-4343 )
卫星状态:
在轨 (已飞行1259 天)
发射日期:
2022-07-11 UTC
国别 :
美国 (US)
星等 :
--
轨道信息
数据来源 国际轨道数据 AOE轨道数据
星历时间 2025-12-21T06:05:28+0800
8小时前
查看轨道信息
2025-12-20T06:00:00+0800
1天前
查看轨道信息
半长轴 6927.651km 6927.656km
偏心率 0.0001534 0.0001288
轨道倾角 97.603° 97.603°
近地点辐角 76.564° 92.614°
升交点赤经 173.547° 172.556°
平近点角 283.575° 230.058°
近地点 548.451km 548.626km
远地点 550.577km 550.412km
周期 95.640分钟 95.640分钟
每日圈数 15.056493 15.056476
详细信息
固有亮度:
5
最大亮度:
2.5
卫星平台:
Starlink v1.5
覆盖范围:
全球
运营商:
太空探索技术公司
运营商所在国:
美国
制造商(研发单位):
太空探索技术公司
制造商所在国:
美国
使用方式:
暂无
卫星简介
星链(Starlink)计划是由太空探索技术公司(SpaceX)提出的一个巨型低轨卫星互联网星座项目,计划在2019年至2024年间在太空搭建由约1.2万颗卫星组成的“星链”网络,其中1584颗将部署在地球上空550千米处的近地轨道,并从2020年开始工作。该卫星仍在工作。
2D轨道图
3D轨道图
轨道高度分析图
轨道倾角分析图
轨道综合分析图
查看轨道综合分析图